Pompano Beach, FL

2:11 PM EST on December 18, 2017 (GMT -0500)
Pompano Beach

Weather History for KPMP - April, 2014

Change the Weather History Date:

Wednesday, April 23, 2014

  Actual Average Record
Temperature  
Mean Temperature 74 °F -  
Max Temperature 84 °F 85 °F 92 °F (1971)
Min Temperature 66 °F 66 °F 52 °F (1986)
Cooling Degree Days 9    
Growing Degree Days 24 (Base 50)    
Moisture  
Dew Point 65 °F    
Average Humidity 72    
Maximum Humidity 90    
Minimum Humidity 54    
Precipitation  
Precipitation 0.00 in - - ()
Sea Level Pressure  
Sea Level Pressure 29.92 in    
Wind  
Wind Speed 7 mph (SW)    
Max Wind Speed 13 mph    
Max Gust Speed -    
Visibility 10 miles    
Events      
Averages and records for this station are not official NWS values.
T = Trace of Precipitation, MM = Missing Value Source: NWS Daily Summary

Daily Weather History Graph

Daily Weather History Graph

Search for Another Location

Airport or City:

Trip Planner

Search our weather history database for the weather conditions in past years. The results will help you decide how hot, cold, wet, or windy it might be!

Date:

Astronomy

Apr. 23, 2014 Rise Set
Actual Time 6:49 AM EDT 7:48 PM EDT
Civil Twilight 6:25 AM EDT 8:12 PM EDT
Nautical Twilight 5:57 AM EDT 8:40 PM EDT
Astronomical Twilight 5:28 AM EDT 9:09 PM EDT
Moon 2:45 AM EDT (4/23) 2:27 PM EDT (4/23)
Length of Visible Light 13h 46m
Length of Day
12h 58m
Waning Crescent, 35% of the Moon is Illuminated
Apr 23
Waning Crescent
Apr 29
New
May 6
First Quarter
May 14
Full
May 21
Last Quarter

Hourly Weather History & Observations

Time (EDT) Temp. Heat Index Dew Point Humidity Pressure Visibility Wind Dir Wind Speed Gust Speed Precip Events Conditions
12:53 AM 73.0 °F - 66.9 °F 81% 29.90 in 10.0 mi Calm Calm - N/A   Clear
1:53 AM 72.0 °F - 62.1 °F 71% 29.91 in 10.0 mi WNW 11.5 mph - N/A   Clear
2:53 AM 70.0 °F - 63.0 °F 78% 29.89 in 10.0 mi WNW 9.2 mph - N/A   Mostly Cloudy
3:53 AM 68.0 °F - 63.0 °F 84% 29.89 in 10.0 mi West 6.9 mph - N/A   Clear
4:53 AM 66.9 °F - 63.0 °F 87% 29.89 in 10.0 mi West 8.1 mph - N/A   Clear
5:53 AM 66.9 °F - 63.0 °F 87% 29.89 in 10.0 mi West 6.9 mph - N/A   Clear
6:53 AM 66.0 °F - 63.0 °F 90% 29.92 in 8.0 mi West 8.1 mph - N/A   Clear
7:53 AM 66.9 °F - 63.0 °F 87% 29.94 in 7.0 mi WNW 5.8 mph - N/A   Clear
8:53 AM 72.0 °F - 63.0 °F 73% 29.95 in 8.0 mi WNW 9.2 mph - N/A   Clear
9:53 AM 73.9 °F - 63.0 °F 68% 29.96 in 10.0 mi WNW 9.2 mph - N/A   Clear
10:53 AM 75.9 °F - 62.1 °F 62% 29.97 in 10.0 mi West 3.5 mph - N/A   Clear
11:53 AM 80.1 °F 81.2 °F 62.1 °F 54% 29.96 in 10.0 mi West 9.2 mph - N/A   Clear
1:53 PM 82.0 °F 83.4 °F 64.0 °F 54% 29.93 in 10.0 mi SE 4.6 mph - N/A   Partly Cloudy
2:53 PM 81.0 °F 82.7 °F 64.9 °F 58% 29.91 in 10.0 mi ESE 11.5 mph - N/A   Partly Cloudy
4:53 PM 81.0 °F 82.7 °F 64.9 °F 58% 29.89 in 10.0 mi SSE 12.7 mph - N/A   Partly Cloudy
5:53 PM 80.1 °F 81.9 °F 64.9 °F 60% 29.89 in 10.0 mi SE 11.5 mph - N/A   Partly Cloudy
6:53 PM 79.0 °F - 64.0 °F 60% 29.90 in 10.0 mi South 9.2 mph - N/A   Clear
7:53 PM 78.1 °F - 66.9 °F 68% 29.91 in 10.0 mi South 8.1 mph - N/A   Clear
8:53 PM 77.0 °F - 68.0 °F 74% 29.93 in 10.0 mi SE 5.8 mph - N/A   Clear
9:53 PM 77.0 °F - 70.0 °F 79% 29.94 in 10.0 mi ESE 5.8 mph - N/A   Clear
10:53 PM 77.0 °F - 70.0 °F 79% 29.95 in 10.0 mi SSE 5.8 mph - N/A   Clear
11:53 PM 75.9 °F - 66.9 °F 74% 29.96 in 10.0 mi South 4.6 mph - N/A   Clear